Location: Newark
(3.0500°N, 36.0167°E)
Time: 02:53:08
(UTC+00:00)

A-11 Canister half - Pass Details

Date: 03 September 2019
Orbit: 1527 x 1682 km, 47.3° (Epoch: 22 October)

Event Time Altitude Azimuth Distance (km) Brightness Sun altitude
Rises 12:49:40 0° 344° (NNW) 4,919 11.9 41.5°
Reaches altitude 10° 12:54:04 10° 0° (N) 3,933 11.3 40.4°
Maximum altitude 13:01:03 21° 45° (NE) 3,153 10.5 38.6°
Drops below altitude 10° 13:07:56 10° 89° (E) 3,901 10.7 36.9°
Sets 13:12:11 0° 104° (ESE) 4,868 11.1 35.9°
